Time,TemperatureF,DewpointF,PressureIn,WindDirection,WindDirectionDegrees,WindSpeedMPH,WindSpeedGustMPH,Humidity,HourlyPrecipIn,Conditions,Clouds,dailyrainin,SoftwareType,DateUTC
2013-11-21 00:01:00,32.8,18.0,29.61,SE,135,8.0,8.0,51,0.00,,,0.00,Rainwise IP-100,2013-11-21 05:01:00,
2013-11-21 00:06:00,32.9,18.0,29.61,SE,135,4.0,9.0,53,0.00,,,0.00,Rainwise IP-100,2013-11-21 05:06:00,
2013-11-21 00:11:00,33.2,18.0,29.61,SE,135,9.0,10.0,51,0.00,,,0.00,Rainwise IP-100,2013-11-21 05:11:00,
2013-11-21 00:16:00,33.2,18.0,29.61,SE,135,6.0,9.0,51,0.00,,,0.00,Rainwise IP-100,2013-11-21 05:16:00,
2013-11-21 00:21:00,33.0,18.0,29.60,SE,135,4.0,10.0,51,0.00,,,0.00,Rainwise IP-100,2013-11-21 05:21:00,
2013-11-21 00:26:00,32.9,18.0,29.60,SE,135,7.0,9.0,51,0.00,,,0.00,Rainwise IP-100,2013-11-21 05:26:00,
2013-11-21 00:31:00,32.9,18.0,29.60,SE,135,6.0,9.0,50,0.00,,,0.00,Rainwise IP-100,2013-11-21 05:31:00,
2013-11-21 00:36:00,32.6,18.0,29.60,SSE,157,4.0,9.0,52,0.00,,,0.00,Rainwise IP-100,2013-11-21 05:36:00,
2013-11-21 00:41:00,32.5,18.0,29.60,SE,135,5.0,8.0,52,0.00,,,0.00,Rainwise IP-100,2013-11-21 05:41:00,
2013-11-21 00:46:00,32.2,18.0,29.60,SSE,157,8.0,8.0,53,0.00,,,0.00,Rainwise IP-100,2013-11-21 05:46:00,
2013-11-21 00:51:00,32.4,16.0,29.60,SE,135,5.0,12.0,52,0.00,,,0.00,Rainwise IP-100,2013-11-21 05:51:00,
2013-11-21 00:56:00,32.1,18.0,29.60,SSE,157,3.0,7.0,53,0.00,,,0.00,Rainwise IP-100,2013-11-21 05:56:00,
2013-11-21 00:57:00,32.1,18.0,29.60,SE,135,4.0,7.0,53,0.00,,,0.00,Rainwise IP-100,2013-11-21 05:57:00,
2013-11-21 01:02:00,31.9,18.0,29.60,SE,135,4.0,7.0,53,0.00,,,0.00,Rainwise IP-100,2013-11-21 06:02:00,
2013-11-21 01:07:00,31.9,18.0,29.60,SSE,157,5.0,9.0,53,0.00,,,0.00,Rainwise IP-100,2013-11-21 06:07:00,
2013-11-21 01:12:00,31.6,18.0,29.61,SSE,157,4.0,7.0,54,0.00,,,0.00,Rainwise IP-100,2013-11-21 06:12:00,
2013-11-21 01:17:00,31.5,18.0,29.61,SSE,157,4.0,8.0,54,0.00,,,0.00,Rainwise IP-100,2013-11-21 06:17:00,
2013-11-21 01:22:00,31.2,16.0,29.61,SSE,157,5.0,7.0,55,0.00,,,0.00,Rainwise IP-100,2013-11-21 06:22:00,
2013-11-21 01:27:00,31.0,16.0,29.60,SSE,157,6.0,7.0,54,0.00,,,0.00,Rainwise IP-100,2013-11-21 06:27:00,
2013-11-21 01:32:00,31.0,16.0,29.60,SSE,157,5.0,8.0,54,0.00,,,0.00,Rainwise IP-100,2013-11-21 06:32:00,
2013-11-21 01:37:00,30.9,16.0,29.60,SSE,157,6.0,8.0,55,0.00,,,0.00,Rainwise IP-100,2013-11-21 06:37:00,
2013-11-21 01:42:00,31.2,16.0,29.60,SSE,157,7.0,9.0,54,0.00,,,0.00,Rainwise IP-100,2013-11-21 06:42:00,
2013-11-21 01:47:00,31.2,16.0,29.60,SE,135,7.0,11.0,54,0.00,,,0.00,Rainwise IP-100,2013-11-21 06:47:00,
2013-11-21 01:52:00,31.3,16.0,29.60,SE,135,6.0,9.0,54,0.00,,,0.00,Rainwise IP-100,2013-11-21 06:52:00,
2013-11-21 01:57:00,31.2,16.0,29.60,SSE,157,9.0,9.0,53,0.00,,,0.00,Rainwise IP-100,2013-11-21 06:57:00,
2013-11-21 02:02:00,31.4,16.0,29.60,SSE,157,6.0,9.0,53,0.00,,,0.00,Rainwise IP-100,2013-11-21 07:02:00,
2013-11-21 02:07:00,31.6,16.0,29.60,SE,135,7.0,12.0,52,0.00,,,0.00,Rainwise IP-100,2013-11-21 07:07:00,
2013-11-21 02:12:00,31.6,16.0,29.60,SE,135,6.0,11.0,52,0.00,,,0.00,Rainwise IP-100,2013-11-21 07:12:00,
2013-11-21 02:17:00,31.7,16.0,29.60,SE,135,9.0,11.0,52,0.00,,,0.00,Rainwise IP-100,2013-11-21 07:17:00,
2013-11-21 02:22:00,32.3,16.0,29.60,SSE,157,9.0,16.0,49,0.00,,,0.00,Rainwise IP-100,2013-11-21 07:22:00,
2013-11-21 02:27:00,32.2,16.0,29.60,SSE,157,9.0,12.0,49,0.00,,,0.00,Rainwise IP-100,2013-11-21 07:27:00,
2013-11-21 02:32:00,32.4,16.0,29.60,SE,135,9.0,12.0,49,0.00,,,0.00,Rainwise IP-100,2013-11-21 07:32:00,
2013-11-21 02:37:00,32.5,16.0,29.60,SE,135,12.0,15.0,48,0.00,,,0.00,Rainwise IP-100,2013-11-21 07:37:00,
2013-11-21 02:42:00,32.6,16.0,29.60,SSE,157,11.0,15.0,48,0.00,,,0.00,Rainwise IP-100,2013-11-21 07:42:00,
2013-11-21 02:47:00,32.6,16.0,29.59,SE,135,12.0,16.0,48,0.00,,,0.00,Rainwise IP-100,2013-11-21 07:47:00,
2013-11-21 02:52:00,32.8,16.0,29.59,SE,135,10.0,17.0,47,0.00,,,0.00,Rainwise IP-100,2013-11-21 07:52:00,
2013-11-21 02:57:00,32.7,16.0,29.59,SE,135,9.0,15.0,47,0.00,,,0.00,Rainwise IP-100,2013-11-21 07:57:00,
2013-11-21 03:02:00,32.7,16.0,29.59,SSE,157,7.0,17.0,47,0.00,,,0.00,Rainwise IP-100,2013-11-21 08:02:00,
2013-11-21 03:07:00,32.4,16.0,29.59,SE,135,9.0,14.0,48,0.00,,,0.00,Rainwise IP-100,2013-11-21 08:07:00,
2013-11-21 03:12:00,32.5,16.0,29.59,SE,135,12.0,18.0,48,0.00,,,0.00,Rainwise IP-100,2013-11-21 08:12:00,
2013-11-21 03:17:00,32.3,16.0,29.59,SSE,157,9.0,16.0,48,0.00,,,0.00,Rainwise IP-100,2013-11-21 08:17:00,
2013-11-21 03:22:00,32.4,14.0,29.59,SE,135,11.0,17.0,47,0.00,,,0.00,Rainwise IP-100,2013-11-21 08:22:00,
2013-11-21 03:27:00,32.5,16.0,29.59,SE,135,14.0,17.0,47,0.00,,,0.00,Rainwise IP-100,2013-11-21 08:27:00,
2013-11-21 03:32:00,32.4,14.0,29.59,SE,135,14.0,19.0,47,0.00,,,0.00,Rainwise IP-100,2013-11-21 08:32:00,
2013-11-21 03:37:00,32.3,16.0,29.59,SE,135,9.0,17.0,48,0.00,,,0.00,Rainwise IP-100,2013-11-21 08:37:00,
2013-11-21 03:42:00,32.2,16.0,29.59,SSE,157,8.0,14.0,48,0.00,,,0.00,Rainwise IP-100,2013-11-21 08:42:00,
2013-11-21 03:47:00,31.9,16.0,29.59,SE,135,7.0,12.0,48,0.00,,,0.00,Rainwise IP-100,2013-11-21 08:47:00,
2013-11-21 03:52:00,31.7,16.0,29.59,SSE,157,5.0,11.0,49,0.00,,,0.00,Rainwise IP-100,2013-11-21 08:52:00,
2013-11-21 03:57:00,31.7,16.0,29.59,SSE,157,6.0,12.0,49,0.00,,,0.00,Rainwise IP-100,2013-11-21 08:57:00,
2013-11-21 04:02:00,31.5,16.0,29.59,SE,135,6.0,12.0,49,0.00,,,0.00,Rainwise IP-100,2013-11-21 09:02:00,
2013-11-21 04:07:00,31.2,16.0,29.60,SSE,157,5.0,9.0,51,0.00,,,0.00,Rainwise IP-100,2013-11-21 09:07:00,
2013-11-21 04:12:00,30.9,16.0,29.59,SSE,157,6.0,7.0,51,0.00,,,0.00,Rainwise IP-100,2013-11-21 09:12:00,
2013-11-21 04:17:00,30.6,16.0,29.59,SSE,157,4.0,7.0,52,0.00,,,0.00,Rainwise IP-100,2013-11-21 09:17:00,
2013-11-21 04:22:00,30.6,16.0,29.59,SE,135,6.0,8.0,51,0.00,,,0.00,Rainwise IP-100,2013-11-21 09:22:00,
2013-11-21 04:27:00,30.4,16.0,29.59,SE,135,7.0,9.0,52,0.00,,,0.00,Rainwise IP-100,2013-11-21 09:27:00,
2013-11-21 04:32:00,30.2,16.0,29.58,SE,135,9.0,9.0,52,0.00,,,0.00,Rainwise IP-100,2013-11-21 09:32:00,
2013-11-21 04:37:00,30.2,16.0,29.58,SE,135,7.0,10.0,52,0.00,,,0.00,Rainwise IP-100,2013-11-21 09:37:00,
2013-11-21 04:42:00,30.3,16.0,29.58,SE,135,6.0,11.0,52,0.00,,,0.00,Rainwise IP-100,2013-11-21 09:42:00,
2013-11-21 04:47:00,30.5,16.0,29.58,SE,135,6.0,11.0,51,0.00,,,0.00,Rainwise IP-100,2013-11-21 09:47:00,
2013-11-21 04:52:00,30.4,16.0,29.58,SE,135,3.0,11.0,52,0.00,,,0.00,Rainwise IP-100,2013-11-21 09:52:00,
2013-11-21 04:57:00,30.3,16.0,29.58,SE,135,6.0,8.0,52,0.00,,,0.00,Rainwise IP-100,2013-11-21 09:57:00,
2013-11-21 05:02:00,30.2,16.0,29.58,SE,135,4.0,7.0,52,0.00,,,0.00,Rainwise IP-100,2013-11-21 10:02:00,
2013-11-21 05:07:00,30.2,16.0,29.58,SE,135,4.0,7.0,52,0.00,,,0.00,Rainwise IP-100,2013-11-21 10:07:00,
2013-11-21 05:12:00,29.9,16.0,29.58,SE,135,6.0,7.0,53,0.00,,,0.00,Rainwise IP-100,2013-11-21 10:12:00,
2013-11-21 05:17:00,29.7,16.0,29.58,SE,135,4.0,8.0,53,0.00,,,0.00,Rainwise IP-100,2013-11-21 10:17:00,
2013-11-21 05:22:00,29.8,16.0,29.58,SE,135,4.0,11.0,53,0.00,,,0.00,Rainwise IP-100,2013-11-21 10:22:00,
2013-11-21 05:27:00,29.9,16.0,29.58,SE,135,9.0,12.0,51,0.00,,,0.00,Rainwise IP-100,2013-11-21 10:27:00,
2013-11-21 05:32:00,30.3,16.0,29.58,SSE,157,7.0,14.0,51,0.00,,,0.00,Rainwise IP-100,2013-11-21 10:32:00,
2013-11-21 05:37:00,30.4,16.0,29.58,SSE,157,10.0,12.0,51,0.00,,,0.00,Rainwise IP-100,2013-11-21 10:37:00,
2013-11-21 05:42:00,30.5,16.0,29.58,SE,135,9.0,14.0,50,0.00,,,0.00,Rainwise IP-100,2013-11-21 10:42:00,
2013-11-21 05:47:00,30.6,16.0,29.58,South,180,7.0,11.0,50,0.00,,,0.00,Rainwise IP-100,2013-11-21 10:47:00,
2013-11-21 05:52:00,30.5,16.0,29.58,SE,135,6.0,12.0,50,0.00,,,0.00,Rainwise IP-100,2013-11-21 10:52:00,
2013-11-21 05:57:00,30.3,16.0,29.57,SSE,157,9.0,11.0,52,0.00,,,0.00,Rainwise IP-100,2013-11-21 10:57:00,
2013-11-21 06:02:00,30.0,16.0,29.57,SSE,157,6.0,11.0,53,0.00,,,0.00,Rainwise IP-100,2013-11-21 11:02:00,
2013-11-21 06:07:00,29.7,16.0,29.58,SSE,157,7.0,10.0,54,0.00,,,0.00,Rainwise IP-100,2013-11-21 11:07:00,
2013-11-21 06:12:00,29.5,16.0,29.57,SSE,157,6.0,9.0,55,0.00,,,0.00,Rainwise IP-100,2013-11-21 11:12:00,
2013-11-21 06:17:00,29.4,16.0,29.58,SSE,157,4.0,9.0,55,0.00,,,0.00,Rainwise IP-100,2013-11-21 11:17:00,
2013-11-21 06:22:00,29.1,16.0,29.57,SSE,157,7.0,9.0,55,0.00,,,0.00,Rainwise IP-100,2013-11-21 11:22:00,
2013-11-21 06:27:00,28.9,16.0,29.58,SSE,157,7.0,7.0,57,0.00,,,0.00,Rainwise IP-100,2013-11-21 11:27:00,
2013-11-21 06:32:00,29.1,16.0,29.58,SE,135,4.0,8.0,55,0.00,,,0.00,Rainwise IP-100,2013-11-21 11:32:00,
2013-11-21 06:37:00,29.6,16.0,29.58,SE,135,7.0,8.0,53,0.00,,,0.00,Rainwise IP-100,2013-11-21 11:37:00,
2013-11-21 06:42:00,29.9,16.0,29.58,SE,135,5.0,9.0,52,0.00,,,0.00,Rainwise IP-100,2013-11-21 11:42:00,
2013-11-21 06:47:00,29.9,16.0,29.58,SE,135,4.0,9.0,53,0.00,,,0.00,Rainwise IP-100,2013-11-21 11:47:00,
2013-11-21 06:52:00,29.9,16.0,29.58,ESE,112,4.0,7.0,53,0.00,,,0.00,Rainwise IP-100,2013-11-21 11:52:00,
2013-11-21 06:57:00,29.8,16.0,29.58,SE,135,6.0,7.0,54,0.00,,,0.00,Rainwise IP-100,2013-11-21 11:57:00,
2013-11-21 07:02:00,29.8,16.0,29.58,SE,135,6.0,10.0,53,0.00,,,0.00,Rainwise IP-100,2013-11-21 12:02:00,
2013-11-21 07:07:00,29.9,16.0,29.58,SE,135,5.0,9.0,53,0.00,,,0.00,Rainwise IP-100,2013-11-21 12:07:00,
2013-11-21 07:12:00,29.9,16.0,29.58,SE,135,4.0,8.0,54,0.00,,,0.00,Rainwise IP-100,2013-11-21 12:12:00,
2013-11-21 07:17:00,29.9,16.0,29.58,SSE,157,3.0,7.0,55,0.00,,,0.00,Rainwise IP-100,2013-11-21 12:17:00,
2013-11-21 07:22:00,29.9,16.0,29.58,SSE,157,4.0,7.0,55,0.00,,,0.00,Rainwise IP-100,2013-11-21 12:22:00,
2013-11-21 07:27:00,29.9,16.0,29.58,SE,135,5.0,7.0,55,0.00,,,0.00,Rainwise IP-100,2013-11-21 12:27:00,
2013-11-21 07:32:00,30.1,16.0,29.58,SE,135,6.0,8.0,55,0.00,,,0.00,Rainwise IP-100,2013-11-21 12:32:00,
2013-11-21 07:37:00,30.5,16.0,29.59,SE,135,6.0,8.0,55,0.00,,,0.00,Rainwise IP-100,2013-11-21 12:37:00,
2013-11-21 07:42:00,30.8,16.0,29.59,SE,135,6.0,11.0,54,0.00,,,0.00,Rainwise IP-100,2013-11-21 12:42:00,
2013-11-21 07:47:00,31.1,16.0,29.59,SE,135,7.0,10.0,54,0.00,,,0.00,Rainwise IP-100,2013-11-21 12:47:00,
2013-11-21 07:52:00,31.7,18.0,29.59,ESE,112,8.0,11.0,54,0.00,,,0.00,Rainwise IP-100,2013-11-21 12:52:00,
2013-11-21 07:57:00,32.1,18.0,29.59,SE,135,8.0,13.0,53,0.00,,,0.00,Rainwise IP-100,2013-11-21 12:57:00,
2013-11-21 08:02:00,32.8,18.0,29.59,SSE,157,8.0,12.0,53,0.00,,,0.00,Rainwise IP-100,2013-11-21 13:02:00,
2013-11-21 08:07:00,33.4,18.0,29.59,SE,135,11.0,13.0,53,0.00,,,0.00,Rainwise IP-100,2013-11-21 13:07:00,
2013-11-21 08:12:00,33.6,21.0,29.59,SE,135,7.0,12.0,53,0.00,,,0.00,Rainwise IP-100,2013-11-21 13:12:00,
2013-11-21 08:17:00,33.7,21.0,29.60,SSE,157,4.0,10.0,54,0.00,,,0.00,Rainwise IP-100,2013-11-21 13:17:00,
2013-11-21 08:22:00,33.9,21.0,29.59,SE,135,4.0,11.0,54,0.00,,,0.00,Rainwise IP-100,2013-11-21 13:22:00,
2013-11-21 08:27:00,34.4,21.0,29.59,SE,135,9.0,11.0,53,0.00,,,0.00,Rainwise IP-100,2013-11-21 13:27:00,
2013-11-21 08:32:00,34.9,21.0,29.59,SE,135,12.0,14.0,54,0.00,,,0.00,Rainwise IP-100,2013-11-21 13:32:00,
2013-11-21 08:37:00,35.7,23.0,29.58,SE,135,10.0,16.0,55,0.00,,,0.00,Rainwise IP-100,2013-11-21 13:37:00,
2013-11-21 08:42:00,36.3,23.0,29.58,SSE,157,11.0,16.0,55,0.00,,,0.00,Rainwise IP-100,2013-11-21 13:42:00,
2013-11-21 08:47:00,36.6,23.0,29.58,SSE,157,12.0,15.0,55,0.00,,,0.00,Rainwise IP-100,2013-11-21 13:47:00,
2013-11-21 08:52:00,36.9,23.0,29.58,SSE,157,7.0,20.0,56,0.00,,,0.00,Rainwise IP-100,2013-11-21 13:52:00,
2013-11-21 08:57:00,37.5,24.0,29.58,SSE,157,12.0,19.0,55,0.00,,,0.00,Rainwise IP-100,2013-11-21 13:57:00,
2013-11-21 09:02:00,37.6,24.0,29.58,SSE,157,6.0,24.0,55,0.00,,,0.00,Rainwise IP-100,2013-11-21 14:02:00,
2013-11-21 09:07:00,37.7,24.0,29.59,South,180,9.0,14.0,56,0.00,,,0.00,Rainwise IP-100,2013-11-21 14:07:00,
2013-11-21 09:12:00,37.8,24.0,29.58,SE,135,9.0,15.0,55,0.00,,,0.00,Rainwise IP-100,2013-11-21 14:12:00,
2013-11-21 09:17:00,37.8,24.0,29.58,South,180,8.0,17.0,55,0.00,,,0.00,Rainwise IP-100,2013-11-21 14:17:00,
2013-11-21 09:22:00,37.8,24.0,29.59,South,180,12.0,20.0,56,0.00,,,0.00,Rainwise IP-100,2013-11-21 14:22:00,
2013-11-21 09:27:00,38.1,24.0,29.58,SE,135,12.0,17.0,57,0.00,,,0.00,Rainwise IP-100,2013-11-21 14:27:00,
2013-11-21 09:32:00,38.3,24.0,29.58,SSE,157,16.0,17.0,57,0.00,,,0.00,Rainwise IP-100,2013-11-21 14:32:00,
2013-11-21 09:37:00,39.0,26.0,29.58,South,180,12.0,20.0,57,0.00,,,0.00,Rainwise IP-100,2013-11-21 14:37:00,
2013-11-21 09:42:00,39.7,26.0,29.58,SSE,157,7.0,16.0,56,0.00,,,0.00,Rainwise IP-100,2013-11-21 14:42:00,
2013-11-21 09:47:00,40.3,26.0,29.58,SSE,157,11.0,20.0,55,0.00,,,0.00,Rainwise IP-100,2013-11-21 14:47:00,
2013-11-21 09:52:00,40.8,28.0,29.58,South,180,12.0,24.0,56,0.00,,,0.00,Rainwise IP-100,2013-11-21 14:52:00,
2013-11-21 09:57:00,41.1,26.0,29.58,SSE,157,10.0,21.0,54,0.00,,,0.00,Rainwise IP-100,2013-11-21 14:57:00,
2013-11-21 10:02:00,40.9,26.0,29.58,SSE,157,9.0,17.0,54,0.00,,,0.00,Rainwise IP-100,2013-11-21 15:02:00,
2013-11-21 10:07:00,40.9,28.0,29.58,SSW,202,7.0,20.0,56,0.00,,,0.00,Rainwise IP-100,2013-11-21 15:07:00,
2013-11-21 10:12:00,40.6,28.0,29.58,SSE,157,16.0,18.0,56,0.00,,,0.00,Rainwise IP-100,2013-11-21 15:12:00,
2013-11-21 10:17:00,41.1,28.0,29.58,SSE,157,11.0,17.0,57,0.00,,,0.00,Rainwise IP-100,2013-11-21 15:17:00,
2013-11-21 10:22:00,41.8,28.0,29.58,SSE,157,11.0,18.0,55,0.00,,,0.00,Rainwise IP-100,2013-11-21 15:22:00,
2013-11-21 10:27:00,42.0,28.0,29.58,South,180,5.0,19.0,54,0.00,,,0.00,Rainwise IP-100,2013-11-21 15:27:00,
2013-11-21 10:32:00,42.1,28.0,29.58,South,180,14.0,21.0,54,0.00,,,0.00,Rainwise IP-100,2013-11-21 15:32:00,
2013-11-21 10:37:00,41.9,28.0,29.57,SSE,157,11.0,22.0,55,0.00,,,0.00,Rainwise IP-100,2013-11-21 15:37:00,
2013-11-21 10:42:00,42.5,28.0,29.57,South,180,12.0,23.0,55,0.00,,,0.00,Rainwise IP-100,2013-11-21 15:42:00,
2013-11-21 10:47:00,42.8,28.0,29.58,SSE,157,9.0,21.0,55,0.00,,,0.00,Rainwise IP-100,2013-11-21 15:47:00,
2013-11-21 10:52:00,42.8,28.0,29.58,South,180,16.0,17.0,55,0.00,,,0.00,Rainwise IP-100,2013-11-21 15:52:00,
2013-11-21 10:57:00,42.6,29.0,29.56,SSE,157,14.0,18.0,56,0.00,,,0.00,Rainwise IP-100,2013-11-21 15:57:00,
2013-11-21 11:02:00,42.6,29.0,29.56,SSE,157,11.0,20.0,56,0.00,,,0.00,Rainwise IP-100,2013-11-21 16:02:00,
2013-11-21 11:07:00,42.6,29.0,29.56,South,180,15.0,18.0,56,0.00,,,0.00,Rainwise IP-100,2013-11-21 16:07:00,
2013-11-21 11:12:00,42.8,29.0,29.56,South,180,7.0,18.0,57,0.00,,,0.00,Rainwise IP-100,2013-11-21 16:12:00,
2013-11-21 11:17:00,43.4,29.0,29.56,SSE,157,11.0,16.0,56,0.00,,,0.00,Rainwise IP-100,2013-11-21 16:17:00,
2013-11-21 11:22:00,43.7,31.0,29.55,South,180,7.0,15.0,57,0.00,,,0.00,Rainwise IP-100,2013-11-21 16:22:00,
2013-11-21 11:27:00,43.6,31.0,29.55,SSE,157,13.0,16.0,57,0.00,,,0.00,Rainwise IP-100,2013-11-21 16:27:00,
2013-11-21 11:32:00,43.9,29.0,29.56,South,180,6.0,18.0,56,0.00,,,0.00,Rainwise IP-100,2013-11-21 16:32:00,
2013-11-21 11:37:00,44.2,29.0,29.56,South,180,14.0,16.0,56,0.00,,,0.00,Rainwise IP-100,2013-11-21 16:37:00,
2013-11-21 11:42:00,43.6,29.0,29.56,South,180,14.0,15.0,56,0.00,,,0.00,Rainwise IP-100,2013-11-21 16:42:00,
2013-11-21 11:47:00,43.0,31.0,29.55,South,180,10.0,21.0,59,0.00,,,0.00,Rainwise IP-100,2013-11-21 16:47:00,
2013-11-21 11:52:00,42.6,31.0,29.56,SSE,157,2.0,15.0,59,0.00,,,0.00,Rainwise IP-100,2013-11-21 16:52:00,
2013-11-21 11:57:00,42.4,29.0,29.56,SSE,157,2.0,12.0,59,0.00,,,0.00,Rainwise IP-100,2013-11-21 16:57:00,
2013-11-21 12:02:00,42.6,29.0,29.56,South,180,6.0,14.0,58,0.00,,,0.00,Rainwise IP-100,2013-11-21 17:02:00,
2013-11-21 12:07:00,42.9,31.0,29.55,SE,135,4.0,11.0,60,0.00,,,0.00,Rainwise IP-100,2013-11-21 17:07:00,
2013-11-21 12:12:00,42.7,31.0,29.55,SSE,157,7.0,12.0,61,0.00,,,0.00,Rainwise IP-100,2013-11-21 17:12:00,
2013-11-21 12:17:00,42.5,31.0,29.55,SE,135,7.0,12.0,60,0.00,,,0.00,Rainwise IP-100,2013-11-21 17:17:00,
2013-11-21 12:22:00,42.8,31.0,29.55,SSE,157,4.0,9.0,61,0.00,,,0.00,Rainwise IP-100,2013-11-21 17:22:00,
2013-11-21 12:27:00,42.9,31.0,29.54,SE,135,6.0,11.0,60,0.00,,,0.00,Rainwise IP-100,2013-11-21 17:27:00,
2013-11-21 12:32:00,43.0,31.0,29.54,SSE,157,8.0,9.0,61,0.00,,,0.00,Rainwise IP-100,2013-11-21 17:32:00,
2013-11-21 12:37:00,43.3,31.0,29.54,SSE,157,11.0,11.0,61,0.00,,,0.00,Rainwise IP-100,2013-11-21 17:37:00,
2013-11-21 12:42:00,43.8,31.0,29.54,South,180,6.0,13.0,59,0.00,,,0.00,Rainwise IP-100,2013-11-21 17:42:00,
2013-11-21 12:47:00,44.1,31.0,29.54,SE,135,5.0,12.0,59,0.00,,,0.00,Rainwise IP-100,2013-11-21 17:47:00,
2013-11-21 12:52:00,44.6,31.0,29.54,SE,135,11.0,11.0,58,0.00,,,0.00,Rainwise IP-100,2013-11-21 17:52:00,
2013-11-21 12:57:00,44.9,31.0,29.54,SSE,157,7.0,13.0,57,0.00,,,0.00,Rainwise IP-100,2013-11-21 17:57:00,
2013-11-21 13:02:00,44.9,31.0,29.54,South,180,9.0,14.0,56,0.00,,,0.00,Rainwise IP-100,2013-11-21 18:02:00,
2013-11-21 13:07:00,44.9,31.0,29.54,South,180,11.0,14.0,57,0.00,,,0.00,Rainwise IP-100,2013-11-21 18:07:00,
2013-11-21 13:12:00,44.9,31.0,29.54,SSE,157,14.0,16.0,57,0.00,,,0.00,Rainwise IP-100,2013-11-21 18:12:00,
2013-11-21 13:17:00,44.7,31.0,29.54,SSE,157,11.0,15.0,58,0.00,,,0.00,Rainwise IP-100,2013-11-21 18:17:00,
2013-11-21 13:22:00,44.7,31.0,29.54,South,180,7.0,14.0,57,0.00,,,0.00,Rainwise IP-100,2013-11-21 18:22:00,
2013-11-21 13:27:00,44.9,31.0,29.54,SSE,157,6.0,12.0,58,0.00,,,0.00,Rainwise IP-100,2013-11-21 18:27:00,
2013-11-21 13:32:00,44.9,31.0,29.54,SSE,157,4.0,11.0,57,0.00,,,0.00,Rainwise IP-100,2013-11-21 18:32:00,
2013-11-21 13:37:00,45.0,31.0,29.54,South,180,7.0,11.0,58,0.00,,,0.00,Rainwise IP-100,2013-11-21 18:37:00,
2013-11-21 13:42:00,44.9,31.0,29.54,South,180,5.0,12.0,56,0.00,,,0.00,Rainwise IP-100,2013-11-21 18:42:00,
2013-11-21 13:47:00,44.9,31.0,29.54,SSW,202,6.0,11.0,55,0.00,,,0.00,Rainwise IP-100,2013-11-21 18:47:00,
2013-11-21 13:52:00,45.1,31.0,29.54,South,180,6.0,10.0,57,0.00,,,0.00,Rainwise IP-100,2013-11-21 18:52:00,
2013-11-21 13:57:00,45.2,31.0,29.54,South,180,4.0,11.0,57,0.00,,,0.00,Rainwise IP-100,2013-11-21 18:57:00,
2013-11-21 14:02:00,45.1,31.0,29.54,South,180,9.0,10.0,57,0.00,,,0.00,Rainwise IP-100,2013-11-21 19:02:00,
2013-11-21 14:07:00,45.1,31.0,29.54,South,180,8.0,12.0,57,0.00,,,0.00,Rainwise IP-100,2013-11-21 19:07:00,
2013-11-21 14:12:00,44.8,31.0,29.54,South,180,4.0,12.0,56,0.00,,,0.00,Rainwise IP-100,2013-11-21 19:12:00,
2013-11-21 14:17:00,44.9,31.0,29.53,SSW,202,3.0,11.0,58,0.00,,,0.00,Rainwise IP-100,2013-11-21 19:17:00,
2013-11-21 14:22:00,44.9,31.0,29.53,SSW,202,6.0,11.0,56,0.00,,,0.00,Rainwise IP-100,2013-11-21 19:22:00,
2013-11-21 14:27:00,44.9,31.0,29.53,SSE,157,2.0,11.0,57,0.00,,,0.00,Rainwise IP-100,2013-11-21 19:27:00,
2013-11-21 14:32:00,44.9,31.0,29.53,South,180,4.0,10.0,57,0.00,,,0.00,Rainwise IP-100,2013-11-21 19:32:00,
2013-11-21 14:37:00,44.9,31.0,29.53,South,180,8.0,9.0,58,0.00,,,0.00,Rainwise IP-100,2013-11-21 19:37:00,
2013-11-21 14:42:00,44.7,31.0,29.53,South,180,10.0,13.0,58,0.00,,,0.00,Rainwise IP-100,2013-11-21 19:42:00,
2013-11-21 14:47:00,44.4,31.0,29.53,South,180,11.0,12.0,58,0.00,,,0.00,Rainwise IP-100,2013-11-21 19:47:00,
2013-11-21 14:52:00,44.2,31.0,29.53,SSE,157,8.0,14.0,59,0.00,,,0.00,Rainwise IP-100,2013-11-21 19:52:00,
2013-11-21 14:57:00,44.1,31.0,29.53,South,180,8.0,12.0,60,0.00,,,0.00,Rainwise IP-100,2013-11-21 19:57:00,
2013-11-21 15:02:00,43.9,31.0,29.53,SSE,157,6.0,11.0,60,0.00,,,0.00,Rainwise IP-100,2013-11-21 20:02:00,
2013-11-21 15:07:00,43.9,32.0,29.53,South,180,6.0,12.0,61,0.00,,,0.00,Rainwise IP-100,2013-11-21 20:07:00,
2013-11-21 15:12:00,43.9,32.0,29.53,South,180,8.0,10.0,62,0.00,,,0.00,Rainwise IP-100,2013-11-21 20:12:00,
2013-11-21 15:17:00,43.8,32.0,29.53,SSE,157,4.0,12.0,62,0.00,,,0.00,Rainwise IP-100,2013-11-21 20:17:00,
2013-11-21 15:22:00,43.8,32.0,29.53,SSE,157,4.0,12.0,62,0.00,,,0.00,Rainwise IP-100,2013-11-21 20:22:00,
2013-11-21 15:27:00,43.7,32.0,29.53,South,180,6.0,12.0,62,0.00,,,0.00,Rainwise IP-100,2013-11-21 20:27:00,
2013-11-21 15:32:00,43.7,32.0,29.52,South,180,3.0,11.0,63,0.00,,,0.00,Rainwise IP-100,2013-11-21 20:32:00,
2013-11-21 15:37:00,43.6,32.0,29.53,SSE,157,10.0,12.0,63,0.00,,,0.00,Rainwise IP-100,2013-11-21 20:37:00,
2013-11-21 15:42:00,43.5,32.0,29.53,South,180,7.0,13.0,63,0.00,,,0.00,Rainwise IP-100,2013-11-21 20:42:00,
2013-11-21 15:47:00,43.4,32.0,29.53,South,180,7.0,12.0,64,0.00,,,0.00,Rainwise IP-100,2013-11-21 20:47:00,
2013-11-21 15:52:00,43.2,32.0,29.52,South,180,6.0,12.0,64,0.00,,,0.00,Rainwise IP-100,2013-11-21 20:52:00,
2013-11-21 15:57:00,43.1,32.0,29.53,South,180,12.0,12.0,65,0.00,,,0.00,Rainwise IP-100,2013-11-21 20:57:00,
2013-11-21 16:02:00,42.9,32.0,29.53,South,180,5.0,12.0,65,0.00,,,0.00,Rainwise IP-100,2013-11-21 21:02:00,
2013-11-21 16:07:00,42.8,32.0,29.52,South,180,7.0,9.0,65,0.00,,,0.00,Rainwise IP-100,2013-11-21 21:07:00,
2013-11-21 16:12:00,42.8,32.0,29.53,South,180,4.0,11.0,66,0.00,,,0.00,Rainwise IP-100,2013-11-21 21:12:00,
2013-11-21 16:17:00,42.7,32.0,29.53,SSE,157,7.0,12.0,66,0.00,,,0.00,Rainwise IP-100,2013-11-21 21:17:00,
2013-11-21 16:22:00,42.6,33.0,29.53,SE,135,6.0,11.0,67,0.00,,,0.00,Rainwise IP-100,2013-11-21 21:22:00,
2013-11-21 16:27:00,42.6,33.0,29.53,SSE,157,4.0,9.0,67,0.00,,,0.00,Rainwise IP-100,2013-11-21 21:27:00,
2013-11-21 16:32:00,42.5,33.0,29.53,South,180,2.0,7.0,68,0.00,,,0.00,Rainwise IP-100,2013-11-21 21:32:00,
2013-11-21 16:37:00,42.4,32.0,29.53,South,180,2.0,7.0,68,0.00,,,0.00,Rainwise IP-100,2013-11-21 21:37:00,
2013-11-21 16:42:00,42.2,32.0,29.53,SSE,157,4.0,6.0,68,0.00,,,0.00,Rainwise IP-100,2013-11-21 21:42:00,
2013-11-21 16:47:00,42.2,33.0,29.52,SSE,157,1.0,7.0,69,0.00,,,0.00,Rainwise IP-100,2013-11-21 21:47:00,
2013-11-21 16:52:00,42.1,33.0,29.52,SE,135,5.0,8.0,69,0.00,,,0.00,Rainwise IP-100,2013-11-21 21:52:00,
2013-11-21 16:57:00,42.1,33.0,29.52,SSE,157,4.0,8.0,69,0.00,,,0.00,Rainwise IP-100,2013-11-21 21:57:00,
2013-11-21 17:02:00,42.0,33.0,29.52,South,180,4.0,7.0,70,0.00,,,0.00,Rainwise IP-100,2013-11-21 22:02:00,
2013-11-21 17:07:00,41.9,33.0,29.52,SSE,157,6.0,9.0,70,0.00,,,0.00,Rainwise IP-100,2013-11-21 22:07:00,
2013-11-21 17:12:00,41.9,33.0,29.52,South,180,4.0,9.0,70,0.00,,,0.00,Rainwise IP-100,2013-11-21 22:12:00,
2013-11-21 17:17:00,41.9,33.0,29.52,South,180,6.0,7.0,71,0.00,,,0.00,Rainwise IP-100,2013-11-21 22:17:00,
2013-11-21 17:22:00,41.9,33.0,29.52,SSE,157,4.0,6.0,71,0.00,,,0.00,Rainwise IP-100,2013-11-21 22:22:00,
2013-11-21 17:27:00,41.8,33.0,29.52,SSE,157,5.0,5.0,72,0.00,,,0.00,Rainwise IP-100,2013-11-21 22:27:00,
2013-11-21 17:32:00,41.7,33.0,29.52,SSE,157,4.0,6.0,72,0.00,,,0.00,Rainwise IP-100,2013-11-21 22:32:00,
2013-11-21 17:37:00,41.6,35.0,29.52,South,180,5.0,6.0,73,0.00,,,0.00,Rainwise IP-100,2013-11-21 22:37:00,
2013-11-21 17:42:00,41.6,35.0,29.51,South,180,4.0,6.0,73,0.00,,,0.00,Rainwise IP-100,2013-11-21 22:42:00,
2013-11-21 17:47:00,41.5,35.0,29.52,SSE,157,6.0,6.0,73,0.00,,,0.00,Rainwise IP-100,2013-11-21 22:47:00,
2013-11-21 17:52:00,41.5,35.0,29.51,South,180,6.0,7.0,73,0.00,,,0.00,Rainwise IP-100,2013-11-21 22:52:00,
2013-11-21 17:57:00,41.6,35.0,29.51,SSE,157,6.0,10.0,73,0.00,,,0.00,Rainwise IP-100,2013-11-21 22:57:00,
2013-11-21 18:02:00,41.6,35.0,29.51,SSE,157,5.0,8.0,73,0.00,,,0.00,Rainwise IP-100,2013-11-21 23:02:00,
2013-11-21 18:07:00,41.6,35.0,29.52,SSE,157,2.0,9.0,73,0.00,,,0.00,Rainwise IP-100,2013-11-21 23:07:00,
2013-11-21 18:12:00,41.7,33.0,29.52,SSE,157,4.0,9.0,72,0.00,,,0.00,Rainwise IP-100,2013-11-21 23:12:00,
2013-11-21 18:17:00,41.7,33.0,29.51,SSE,157,7.0,7.0,72,0.00,,,0.00,Rainwise IP-100,2013-11-21 23:17:00,
2013-11-21 18:22:00,41.6,35.0,29.51,SE,135,2.0,7.0,73,0.00,,,0.00,Rainwise IP-100,2013-11-21 23:22:00,
2013-11-21 18:27:00,41.6,35.0,29.51,SSE,157,2.0,6.0,73,0.00,,,0.00,Rainwise IP-100,2013-11-21 23:27:00,
2013-11-21 18:32:00,41.6,35.0,29.51,SE,135,4.0,6.0,73,0.00,,,0.00,Rainwise IP-100,2013-11-21 23:32:00,
2013-11-21 18:37:00,41.6,35.0,29.51,SSE,157,4.0,6.0,73,0.00,,,0.00,Rainwise IP-100,2013-11-21 23:37:00,
2013-11-21 18:42:00,41.6,35.0,29.50,SE,135,5.0,7.0,73,0.00,,,0.00,Rainwise IP-100,2013-11-21 23:42:00,
2013-11-21 18:47:00,41.5,35.0,29.50,SE,135,3.0,6.0,73,0.00,,,0.00,Rainwise IP-100,2013-11-21 23:47:00,
2013-11-21 18:52:00,41.4,33.0,29.50,SE,135,4.0,6.0,73,0.00,,,0.00,Rainwise IP-100,2013-11-21 23:52:00,
2013-11-21 18:57:00,41.3,33.0,29.50,SE,135,6.0,7.0,74,0.00,,,0.00,Rainwise IP-100,2013-11-21 23:57:00,
2013-11-21 19:02:00,41.2,33.0,29.49,SE,135,5.0,7.0,74,0.00,,,0.00,Rainwise IP-100,2013-11-22 00:02:00,
2013-11-21 19:07:00,41.2,33.0,29.49,SSE,157,6.0,7.0,74,0.00,,,0.00,Rainwise IP-100,2013-11-22 00:07:00,
2013-11-21 19:12:00,41.1,35.0,29.50,SE,135,2.0,6.0,76,0.00,,,0.00,Rainwise IP-100,2013-11-22 00:12:00,
2013-11-21 19:17:00,40.9,35.0,29.50,SSE,157,2.0,4.0,76,0.00,,,0.00,Rainwise IP-100,2013-11-22 00:17:00,
2013-11-21 19:22:00,40.9,35.0,29.50,SSE,157,4.0,5.0,76,0.00,,,0.00,Rainwise IP-100,2013-11-22 00:22:00,
2013-11-21 19:27:00,40.9,35.0,29.50,SSE,157,3.0,5.0,76,0.00,,,0.00,Rainwise IP-100,2013-11-22 00:27:00,
2013-11-21 19:32:00,40.9,35.0,29.50,SSE,157,2.0,6.0,76,0.00,,,0.00,Rainwise IP-100,2013-11-22 00:32:00,
2013-11-21 19:37:00,40.9,35.0,29.49,SE,135,2.0,6.0,76,0.00,,,0.00,Rainwise IP-100,2013-11-22 00:37:00,
2013-11-21 19:42:00,40.9,35.0,29.49,SE,135,4.0,6.0,76,0.00,,,0.00,Rainwise IP-100,2013-11-22 00:42:00,
2013-11-21 19:47:00,40.9,35.0,29.49,SE,135,2.0,6.0,76,0.00,,,0.00,Rainwise IP-100,2013-11-22 00:47:00,
2013-11-21 19:52:00,40.9,35.0,29.49,SE,135,5.0,5.0,77,0.00,,,0.00,Rainwise IP-100,2013-11-22 00:52:00,
2013-11-21 19:57:00,40.9,35.0,29.49,SE,135,2.0,6.0,77,0.00,,,0.00,Rainwise IP-100,2013-11-22 00:57:00,
2013-11-21 20:02:00,40.9,35.0,29.49,SE,135,4.0,7.0,77,0.00,,,0.00,Rainwise IP-100,2013-11-22 01:02:00,
2013-11-21 20:07:00,40.9,35.0,29.49,SE,135,2.0,5.0,77,0.00,,,0.00,Rainwise IP-100,2013-11-22 01:07:00,
2013-11-21 20:12:00,40.9,35.0,29.49,SSE,157,4.0,5.0,78,0.00,,,0.00,Rainwise IP-100,2013-11-22 01:12:00,
2013-11-21 20:17:00,40.9,35.0,29.49,SSE,157,6.0,7.0,78,0.00,,,0.00,Rainwise IP-100,2013-11-22 01:17:00,
2013-11-21 20:22:00,41.0,35.0,29.49,South,180,4.0,9.0,78,0.00,,,0.00,Rainwise IP-100,2013-11-22 01:22:00,
2013-11-21 20:27:00,40.9,35.0,29.49,SSE,157,4.0,8.0,78,0.00,,,0.00,Rainwise IP-100,2013-11-22 01:27:00,
2013-11-21 20:32:00,40.9,36.0,29.49,SSE,157,4.0,9.0,80,0.00,,,0.00,Rainwise IP-100,2013-11-22 01:32:00,
2013-11-21 20:37:00,40.8,36.0,29.49,SSE,157,8.0,8.0,81,0.00,,,0.00,Rainwise IP-100,2013-11-22 01:37:00,
2013-11-21 20:42:00,40.9,36.0,29.48,SSE,157,8.0,11.0,80,0.00,,,0.00,Rainwise IP-100,2013-11-22 01:42:00,
2013-11-21 20:47:00,40.9,36.0,29.48,SSE,157,7.0,9.0,79,0.00,,,0.00,Rainwise IP-100,2013-11-22 01:47:00,
2013-11-21 20:52:00,41.1,36.0,29.48,South,180,5.0,14.0,79,0.00,,,0.00,Rainwise IP-100,2013-11-22 01:52:00,
2013-11-21 20:57:00,41.1,36.0,29.48,SSE,157,6.0,12.0,80,0.00,,,0.00,Rainwise IP-100,2013-11-22 01:57:00,
2013-11-21 21:02:00,41.0,36.0,29.47,South,180,6.0,11.0,81,0.00,,,0.00,Rainwise IP-100,2013-11-22 02:02:00,
2013-11-21 21:07:00,41.0,36.0,29.47,South,180,9.0,11.0,81,0.00,,,0.00,Rainwise IP-100,2013-11-22 02:07:00,
2013-11-21 21:08:00,40.9,36.0,29.47,South,180,9.0,11.0,81,0.00,,,0.00,Rainwise IP-100,2013-11-22 02:08:00,
2013-11-21 21:09:00,40.9,36.0,29.47,SE,135,8.0,11.0,81,0.00,,,0.00,Rainwise IP-100,2013-11-22 02:09:00,
2013-11-21 21:14:00,40.9,36.0,29.47,South,180,8.0,11.0,82,0.00,,,0.00,Rainwise IP-100,2013-11-22 02:14:00,
2013-11-21 21:19:00,40.8,37.0,29.47,SSE,157,6.0,10.0,83,0.00,,,0.00,Rainwise IP-100,2013-11-22 02:19:00,
2013-11-21 21:24:00,40.7,37.0,29.46,SSE,157,5.0,10.0,84,0.00,,,0.00,Rainwise IP-100,2013-11-22 02:24:00,
2013-11-21 21:29:00,40.5,37.0,29.46,SSE,157,6.0,7.0,85,0.00,,,0.00,Rainwise IP-100,2013-11-22 02:29:00,
2013-11-21 21:34:00,40.4,37.0,29.46,South,180,5.0,7.0,87,0.00,,,0.00,Rainwise IP-100,2013-11-22 02:34:00,
2013-11-21 21:39:00,40.3,37.0,29.45,South,180,5.0,7.0,88,0.00,,,0.00,Rainwise IP-100,2013-11-22 02:39:00,
2013-11-21 21:44:00,40.2,37.0,29.45,SSE,157,3.0,6.0,89,0.00,,,0.00,Rainwise IP-100,2013-11-22 02:44:00,
2013-11-21 21:49:00,40.1,38.0,29.45,SSE,157,4.0,6.0,90,0.00,,,0.00,Rainwise IP-100,2013-11-22 02:49:00,
2013-11-21 21:54:00,39.9,38.0,29.45,SSE,157,2.0,5.0,91,0.00,,,0.00,Rainwise IP-100,2013-11-22 02:54:00,
2013-11-21 21:59:00,39.8,38.0,29.45,SE,135,4.0,6.0,92,0.00,,,0.00,Rainwise IP-100,2013-11-22 02:59:00,
2013-11-21 22:04:00,39.6,38.0,29.44,SSE,157,8.0,8.0,93,0.00,,,0.00,Rainwise IP-100,2013-11-22 03:04:00,
2013-11-21 22:09:00,39.4,38.0,29.44,SSE,157,4.0,11.0,94,0.00,,,0.00,Rainwise IP-100,2013-11-22 03:09:00,
2013-11-21 22:14:00,39.2,38.0,29.44,SSE,157,4.0,9.0,94,0.00,,,0.00,Rainwise IP-100,2013-11-22 03:14:00,
2013-11-21 22:19:00,39.1,38.0,29.44,SSE,157,3.0,7.0,95,0.00,,,0.00,Rainwise IP-100,2013-11-22 03:19:00,
2013-11-21 22:24:00,39.1,38.0,29.44,SSE,157,6.0,7.0,95,0.00,,,0.00,Rainwise IP-100,2013-11-22 03:24:00,
2013-11-21 22:29:00,39.0,38.0,29.44,SSE,157,2.0,6.0,96,0.00,,,0.00,Rainwise IP-100,2013-11-22 03:29:00,
2013-11-21 22:34:00,38.9,38.0,29.43,SSE,157,2.0,6.0,96,0.00,,,0.00,Rainwise IP-100,2013-11-22 03:34:00,
2013-11-21 22:39:00,38.9,38.0,29.43,SSE,157,3.0,5.0,96,0.00,,,0.00,Rainwise IP-100,2013-11-22 03:39:00,
2013-11-21 22:44:00,38.9,38.0,29.43,SSE,157,2.0,4.0,96,0.00,,,0.00,Rainwise IP-100,2013-11-22 03:44:00,
2013-11-21 22:49:00,38.9,38.0,29.43,SSE,157,2.0,5.0,96,0.00,,,0.00,Rainwise IP-100,2013-11-22 03:49:00,
2013-11-21 22:54:00,39.1,38.0,29.43,SSE,157,2.0,4.0,96,0.00,,,0.00,Rainwise IP-100,2013-11-22 03:54:00,
2013-11-21 22:59:00,39.2,38.0,29.42,SE,135,2.0,4.0,96,0.00,,,0.00,Rainwise IP-100,2013-11-22 03:59:00,
2013-11-21 23:04:00,39.2,38.0,29.41,SE,135,1.0,4.0,96,0.06,,,0.01,Rainwise IP-100,2013-11-22 04:04:00,
2013-11-21 23:09:00,39.1,38.0,29.41,SE,135,0.0,2.0,96,0.06,,,0.01,Rainwise IP-100,2013-11-22 04:09:00,
2013-11-21 23:14:00,39.1,38.0,29.42,SE,135,0.0,0.0,96,0.00,,,0.01,Rainwise IP-100,2013-11-22 04:14:00,
2013-11-21 23:19:00,39.3,38.0,29.42,South,180,1.0,2.0,96,0.00,,,0.01,Rainwise IP-100,2013-11-22 04:19:00,
2013-11-21 23:24:00,39.4,38.0,29.42,South,180,2.0,4.0,96,0.00,,,0.01,Rainwise IP-100,2013-11-22 04:24:00,
2013-11-21 23:29:00,39.5,39.0,29.42,South,180,3.0,6.0,96,0.00,,,0.01,Rainwise IP-100,2013-11-22 04:29:00,
2013-11-21 23:34:00,39.8,39.0,29.42,South,180,1.0,7.0,96,0.06,,,0.02,Rainwise IP-100,2013-11-22 04:34:00,
2013-11-21 23:39:00,39.9,39.0,29.42,SSE,157,2.0,7.0,96,0.06,,,0.02,Rainwise IP-100,2013-11-22 04:39:00,
2013-11-21 23:44:00,39.9,39.0,29.41,SSE,157,6.0,9.0,96,0.00,,,0.02,Rainwise IP-100,2013-11-22 04:44:00,
2013-11-21 23:49:00,40.2,39.0,29.42,South,180,10.0,10.0,95,0.00,,,0.02,Rainwise IP-100,2013-11-22 04:49:00,
2013-11-21 23:54:00,40.3,39.0,29.41,SSE,157,6.0,10.0,95,0.00,,,0.02,Rainwise IP-100,2013-11-22 04:54:00,
2013-11-21 23:59:00,40.5,39.0,29.41,SE,135,4.0,9.0,94,0.00,,,0.02,Rainwise IP-100,2013-11-22 04:59:00,